This demonstration page uses our WeatherBlox Daily Observations layout. Learn more.

Hourly Observations for January 10, 2019

Temp ( °F °C ) Dew Point ( °F °C ) Humidity (%) Winds ( mph kmh ) Pressure ( in mb ) Visibility ( mi km ) Precip ( " mm )
12:15 am 00:15 Cloudy 32 0 19 -7 60 60 NW 18 30 29.94 1014 10 16.09344 0 0
12:35 am 00:35 Cloudy 32 0 19 -7 60 60 WNW 21 33 29.97 1015 10 16.09344 0 0
12:55 am 00:55 Cloudy 32 0 19 -7 60 60 NW 29 46 29.97 1015 10 16.09344 0 0
1:15 am 01:15 Cloudy 32 0 19 -7 60 60 NW 16 26 29.97 1015 10 16.09344 0 0
1:35 am 01:35 Cloudy 32 0 19 -7 60 60 NW 15 24 29.97 1015 10 16.09344 0 0
1:55 am 01:55 Cloudy 32 0 19 -7 60 60 NW 20 31 29.97 1015 10 16.09344 0 0
2:15 am 02:15 Cloudy 32 0 19 -7 60 60 NW 26 43 29.97 1015 10 16.09344 0 0
2:35 am 02:35 Mostly Cloudy 32 0 18 -8 55 55 WNW 26 43 29.97 1015 10 16.09344 0 0
2:55 am 02:55 Cloudy 32 0 18 -8 55 55 NW 33 54 29.94 1014 10 16.09344 0 0
3:15 am 03:15 Cloudy 30 -1 18 -8 59 59 WNW 29 46 29.94 1014 10 16.09344 0 0
3:35 am 03:35 Cloudy 30 -1 18 -8 59 59 WNW 30 48 29.94 1014 10 16.09344 0 0
3:55 am 03:55 Cloudy 32 0 18 -8 55 55 NW 21 33 29.97 1015 10 16.09344 0 0
4:15 am 04:15 Cloudy 30 -1 18 -8 59 59 WNW 24 39 29.94 1014 10 16.09344 0 0
4:35 am 04:35 Cloudy 30 -1 18 -8 59 59 NW 20 31 29.97 1015 10 16.09344 0 0
4:55 am 04:55 Cloudy 30 -1 18 -8 59 59 NW 18 30 29.97 1015 10 16.09344 0 0
5:15 am 05:15 Cloudy 30 -1 18 -8 59 59 NW 17 28 29.97 1015 10 16.09344 0 0
5:35 am 05:35 Cloudy 30 -1 18 -8 59 59 WNW 16 26 29.97 1015 10 16.09344 0 0
5:55 am 05:55 Cloudy 30 -1 18 -8 59 59 NW 15 24 29.97 1015 10 16.09344 0 0
6:15 am 06:15 Cloudy 30 -1 18 -8 59 59 NW 16 26 29.97 1015 10 16.09344 0 0
6:35 am 06:35 Mostly Cloudy 30 -1 19 -7 64 64 WNW 20 31 29.97 1015 10 16.09344 0 0
6:55 am 06:55 Partly Cloudy 30 -1 19 -7 64 64 WNW 23 37 30 1016 10 16.09344 0 0
7:15 am 07:15 Mostly Cloudy 30 -1 19 -7 64 64 NW 21 33 30 1016 10 16.09344 0 0
7:35 am 07:35 Cloudy 30 -1 19 -7 64 64 WNW 17 28 30 1016 10 16.09344 0 0
7:55 am 07:55 Cloudy 32 0 19 -7 60 60 NW 15 24 30 1016 10 16.09344 0 0
8:15 am 08:15 Cloudy 30 -1 19 -7 64 64 NNW 22 35 30 1016 10 16.09344 0 0
8:35 am 08:35 Cloudy 32 0 19 -7 60 60 NW 25 41 30.03 1017 10 16.09344 0 0
8:55 am 08:55 Cloudy 32 0 19 -7 60 60 NW 29 46 30.03 1017 10 16.09344 0 0
9:15 am 09:15 Cloudy 32 0 19 -7 60 60 NW 16 26 30.06 1018 10 16.09344 0 0
9:35 am 09:35 Mostly Cloudy 32 0 19 -7 60 60 NW 23 37 30.06 1018 10 16.09344 0 0
9:55 am 09:55 Mostly Cloudy 32 0 19 -7 60 60 NW 25 41 30.06 1018 10 16.09344 0 0
10:15 am 10:15 Partly Cloudy 32 0 19 -7 60 60 NW 26 43 30.06 1018 10 16.09344 0 0
10:35 am 10:35 Sunny 34 1 19 -7 56 56 NW 32 52 30.06 1018 10 16.09344 0 0
10:55 am 10:55 Partly Cloudy 34 1 18 -8 51 51 NNW 29 46 30.06 1018 10 16.09344 0 0
11:15 am 11:15 Sunny 34 1 19 -7 56 56 NW 29 46 30.06 1018 10 16.09344 0 0
11:35 am 11:35 Sunny 34 1 19 -7 56 56 NW 28 44 30.03 1017 10 16.09344 0 0
11:55 am 11:55 Partly Cloudy 34 1 19 -7 56 56 NNW 25 41 30.06 1018 10 16.09344 0 0
12:15 pm 12:15 Mostly Cloudy 34 1 19 -7 56 56 NW 25 41 30.03 1017 10 16.09344 0 0
12:35 pm 12:35 Mostly Cloudy 34 1 19 -7 56 56 NNW 25 41 30.03 1017 10 16.09344 0 0
12:55 pm 12:55 Mostly Cloudy 36 2 19 -7 52 52 NW 29 46 30.03 1017 10 16.09344 0 0
1:15 pm 13:15 Partly Cloudy 36 2 19 -7 52 52 NW 22 35 30.03 1017 10 16.09344 0 0
1:35 pm 13:35 Mostly Cloudy 36 2 19 -7 52 52 WNW 25 41 30.06 1018 10 16.09344 0 0
1:55 pm 13:55 Mostly Cloudy 36 2 19 -7 52 52 NNW 25 41 30.06 1018 10 16.09344 0 0
2:15 pm 14:15 Mostly Cloudy 34 1 19 -7 56 56 NW 28 44 30.06 1018 10 16.09344 0 0
2:35 pm 14:35 Mostly Cloudy 36 2 19 -7 52 52 NW 25 41 30.09 1019 10 16.09344 0 0
2:55 pm 14:55 Mostly Cloudy 34 1 18 -8 51 51 NNW 20 31 30.09 1019 10 16.09344 0 0
3:15 pm 15:15 Partly Cloudy 34 1 19 -7 56 56 NW 23 37 30.09 1019 10 16.09344 0 0
3:35 pm 15:35 Mostly Cloudy 34 1 18 -8 51 51 NNW 22 35 30.12 1020 10 16.09344 0 0
3:55 pm 15:55 Partly Cloudy 34 1 18 -8 51 51 NNW 21 33 30.12 1020 10 16.09344 0 0
4:15 pm 16:15 Sunny 34 1 18 -8 51 51 NNW 21 33 30.12 1020 10 16.09344 0 0
4:35 pm 16:35 Partly Cloudy 32 0 18 -8 55 55 NW 21 33 30.12 1020 10 16.09344 0 0
4:55 pm 16:55 Cloudy 32 0 18 -8 55 55 NNW 16 26 30.15 1021 10 16.09344 0 0
5:15 pm 17:15 Mostly Cloudy 32 0 18 -8 55 55 NW 21 33 30.15 1021 10 16.09344 0 0
5:35 pm 17:35 Mostly Cloudy 32 0 18 -8 55 55 NW 14 22 30.15 1021 10 16.09344 0 0
5:55 pm 17:55 Mostly Cloudy 32 0 18 -8 55 55 NW 15 24 30.18 1022 10 16.09344 0 0
6:15 pm 18:15 Mostly Cloudy 32 0 19 -7 60 60 NW 12 19 30.18 1022 10 16.09344 0 0
6:35 pm 18:35 Cloudy 32 0 18 -8 55 55 NNW 17 28 30.18 1022 10 16.09344 0 0
6:55 pm 18:55 Cloudy 30 -1 18 -8 59 59 NW 20 31 30.18 1022 10 16.09344 0 0
7:15 pm 19:15 Cloudy 30 -1 18 -8 59 59 NW 17 28 30.18 1022 10 16.09344 0 0
7:35 pm 19:35 Mostly Cloudy 30 -1 18 -8 59 59 NW 18 30 30.18 1022 10 16.09344 0 0
7:55 pm 19:55 Clear 30 -1 18 -8 59 59 NW 21 33 30.18 1022 10 16.09344 0 0
8:15 pm 20:15 Clear 30 -1 18 -8 59 59 NW 10 17 30.18 1022 10 16.09344 0 0
8:35 pm 20:35 Clear 30 -1 18 -8 59 59 NW 13 20 30.18 1022 10 16.09344 0 0
8:55 pm 20:55 Clear 30 -1 18 -8 59 59 WNW 7 11 30.18 1022 10 16.09344 0 0
9:15 pm 21:15 Clear 30 -1 19 -7 64 64 NW 15 24 30.18 1022 10 16.09344 0 0
9:35 pm 21:35 Clear 30 -1 19 -7 64 64 NW 16 26 30.21 1023 10 16.09344 0 0
9:55 pm 21:55 Clear 30 -1 19 -7 64 64 NW 17 28 30.21 1023 10 16.09344 0 0
10:15 pm 22:15 Clear 30 -1 19 -7 64 64 NNW 16 26 30.21 1023 10 16.09344 0 0
10:35 pm 22:35 Clear 30 -1 19 -7 64 64 NW 16 26 30.21 1023 10 16.09344 0 0
10:55 pm 22:55 Clear 30 -1 19 -7 64 64 NNW 13 20 30.21 1023 10 16.09344 0 0
11:15 pm 23:15 Partly Cloudy 30 -1 19 -7 64 64 NNW 7 11 30.21 1023 10 16.09344 0 0
11:35 pm 23:35 Partly Cloudy 30 -1 19 -7 64 64 NW 24 39 30.21 1023 10 16.09344 0 0
11:55 pm 23:55 Clear 30 -1 19 -7 64 64 NW 14 22 30.21 1023 10 16.09344 0 0

Powered by AerisWeather